Location: Ferchesar
(52.6477°N, 12.4298°E)
Time: 10:04:58
(UTC+01:00)

Tiros 1 despin weight - Pass Details

Date: 13 December 2021
Orbit: 592 x 641 km, 48.2° (Epoch: 19 January)

Event Time Altitude Azimuth Distance (km) Brightness Sun altitude
Rises 12:02:43 0° 254° (WSW) 2,857 ? 14.2°
Reaches altitude 10° 12:05:05 10° 249° (WSW) 1,946 ? 14.2°
Maximum altitude 12:09:21 47° 176° (S) 795 ? 14.2°
Drops below altitude 10° 12:13:36 10° 102° (ESE) 1,927 ? 14.1°
Sets 12:15:55 0° 97° (E) 2,826 ? 14.1°
